Location: Baddeckenstedt
(52.0840°N, 10.2318°E)
Time: 21:03:53
(UTC+00:00)

Daily predictions for brighter satellites

Satellite Brightness Start Highest point End
(mag) Time Altitude Azimuth Time Altitude Azimuth Time Altitude Azimuth
Meteor 1-13 Rocket 4.4 16:06:41 10° S 16:12:35 79° E 16:18:34 10° NNE
Meteor 2-10 Rocket 4.3 16:07:10 10° NNW 16:12:54 68° W 16:18:39 10° S
ACS3 Solar Sail 2.8 16:08:43 10° ESE 16:13:52 26° ENE 16:19:00 10° N
COSMOS 2428 3.2 16:08:32 10° S 16:13:55 45° ESE 16:19:19 10° NE
CZ-2D R/B 3.5 16:09:44 10° SSE 16:13:56 63° ENE 16:18:07 10° N
Cosmos 2333 Rocket 2.9 16:09:22 10° SW 16:14:54 55° NW 16:20:30 10° NNE
Cosmos 1634 Rocket 4.1 16:08:51 10° N 16:15:10 63° ENE 16:21:25 10° SSE
Cosmos 990 Rocket 4.0 16:10:38 10° NNW 16:15:52 64° ENE 16:21:04 10° SE
DNEPR-1 R/B 3.9 16:11:53 10° NW 16:16:59 55° NE 16:21:20 10° ESE
Cosmos 1174 3.7 16:14:52 10° NW 16:18:17 59° NE 16:22:25 10° SE
Cosmos 1300 4.2 16:17:16 10° NNW 16:20:23 36° W 16:23:28 10° SSW
SJ-6F 4.3 16:16:56 10° SSE 16:20:56 80° ENE 16:25:00 10° NNW
Cosmos 1933 Rocket 3.9 16:16:49 10° NNW 16:21:15 71° W 16:25:39 10° S
IGS 5A 3.8 16:19:03 10° SE 16:22:48 40° ENE 16:26:35 10° N
Cosmos 292 Rocket 4.4 16:18:48 10° NNW 16:23:31 61° WSW 16:28:09 10° S
Cosmos 1869 Rocket 3.6 16:19:30 10° N 16:23:57 81° ENE 16:28:24 10° SSE
Cosmos 2322 Rocket 3.2 16:18:59 10° WSW 16:24:19 43° NW 16:29:41 10° NNE
Meteor 1-16 Rocket 4.3 16:20:48 10° N 16:26:09 54° ENE 16:31:37 10° SSE
JB-3 4.3 16:23:23 10° NNE 16:27:14 61° E 16:30:59 10° S
Cosmos 2360 Rocket 3.1 16:21:50 10° SW 16:27:17 48° NW 16:32:48 10° NNE
AQUARIUS 4.2 16:23:53 10° SSE 16:28:12 55° ENE 16:32:33 10° N
BREEZE-M TANK 4.1 16:26:44 10° WSW 16:30:08 33° S 16:34:19 10° ESE
Cosmos 2344 3.8 16:24:03 10° SSW 16:31:21 51° ESE 16:38:22 10° NE
SL-16 R/B 3.8 16:29:38 10° W 16:34:30 28° NW 16:39:25 10° NNE
Cosmos 1937 Rocket 4.0 16:32:06 10° NNW 16:36:50 35° NE 16:41:33 10° ESE
Cosmos 1707 Rocket 4.4 16:33:38 10° SSE 16:37:32 31° E 16:41:27 10° NNE
Okean 3 4.1 16:34:06 10° SSE 16:37:45 32° E 16:41:26 10° NNE
ASTEX 1 3.8 16:34:04 10° S 16:38:53 69° W 16:43:45 10° N
Meteor 1-31 Rocket 3.8 16:37:05 10° ESE 16:39:51 21° ENE 16:42:38 10° NNE
Okean 2 4.2 16:38:46 10° SSE 16:42:09 28° E 16:45:33 10° NNE
Cosmos 1943 Rocket 2.1 16:38:34 10° NNW 16:44:16 75° ENE 16:49:54 10° SE
ARIANE 5 R/B 4.2 16:41:49 10° SSW 16:46:41 39° W 16:51:34 10° NNW
CZ-2C R/B 4.0 16:48:33 15° E 16:49:28 16° ENE 16:51:35 10° NNE
Cosmos 2237 Rocket 2.8 16:45:55 10° S 16:51:07 38° ESE 16:56:08 11° NE
RESURS DK-1 2.2 16:47:14 10° NNW 16:51:17 75° ENE 16:55:18 10° SE
Tsikada Rocket 4.2 16:49:08 10° SSW 16:55:17 77° W 17:01:30 10° N
Cosmos 1862 Rocket 4.0 16:51:16 10° SSE 16:55:22 41° E 16:59:31 10° NNE
BlueWalker 3 1.7 16:53:22 10° WNW 16:57:02 79° N 16:59:51 16° E
USA 81 4.4 16:52:05 10° SSW 16:57:20 68° W 17:02:37 10° N
Cosmos 1455 3.0 16:54:27 10° NNW 16:57:33 44° W 17:00:37 10° SSW
Cosmos 2278 Rocket 2.5 16:52:41 10° NNW 16:58:21 73° WSW 17:03:59 10° SSE
BREEZE-M DEB (TANK) 2.6 16:56:19 10° SW 16:58:23 29° SSE 17:00:09 16° E
COSMO-SKYMED 1 3.2 16:56:14 10° NNE 17:00:14 35° E 17:04:13 10° SSE
NOAA 6 4.3 16:56:57 10° SE 17:01:47 44° ENE 17:06:39 10° N
SJ-7 4.4 16:58:22 10° S 17:02:09 76° WSW 17:06:00 10° NNW
Cosmos 2219 Rocket 3.1 16:56:59 10° WSW 17:02:21 46° NW 17:07:47 10° NNE
ARGOS Delta rocket 4.0 16:58:11 10° S 17:02:48 72° W 17:07:17 10° NNW
Cosmos 2180 Rocket 4.4 16:57:52 10° N 17:04:12 71° ENE 17:10:23 10° SSE
ISS -2.4 17:01:36 10° SSW 17:04:29 27° SSE 17:06:06 18° ESE
CZ-4B R/B 4.1 17:01:24 10° SE 17:04:42 35° ENE 17:07:58 10° N
CZ-4C R/B 2.8 17:01:39 10° S 17:05:25 28° ESE 17:08:01 19° ENE
Nadezhda 4 Rocket 4.3 17:03:27 10° SSE 17:09:08 42° E 17:14:53 10° NNE
Meteor 1-21 4.3 17:04:10 10° SSW 17:09:47 85° WNW 17:15:29 10° NNE
USA 306 1.6 17:09:57 10° WNW 17:12:07 57° N 17:12:55 36° ENE
Cosmos 1763 Rocket 3.5 17:07:49 10° SSW 17:13:02 88° WNW 17:18:12 10° NNE
Cosmos 1733 Rocket 3.1 17:09:20 10° NNW 17:13:44 83° W 17:18:09 10° S
YAOGAN 1 2.8 17:09:42 10° SE 17:13:45 43° ENE 17:17:49 10° N
ATLAS 5 CENTAUR R/B 3.0 17:13:39 10° SE 17:14:21 12° SE 17:14:21 12° SE
Cosmos 540 Rocket 3.4 17:13:36 10° SSW 17:18:44 83° ESE 17:23:47 11° NNE
Landsat 7 3.7 17:15:12 10° SSE 17:19:52 75° ENE 17:24:35 10° NNW
USA 215 3.4 17:16:12 18° ENE 17:21:09 67° NNW 17:27:37 10° W
SPOT 1/Viking Rocket 3.9 17:16:50 10° SE 17:21:37 40° ENE 17:26:25 10° N
Cosmos 2322 4.2 17:16:00 10° SW 17:21:39 59° NW 17:27:21 10° NNE
Cosmos 468 Rocket 3.9 17:17:29 10° SSW 17:22:39 72° ESE 17:27:14 13° NNE
Cosmos 1703 Rocket 4.4 17:20:25 10° SSE 17:24:15 29° E 17:25:05 27° ENE
Cosmos 2279 Rocket 4.4 17:19:36 10° NNW 17:25:44 65° W 17:31:50 10° S
Cosmos 2228 Rocket 3.1 17:21:44 10° S 17:26:16 86° E 17:30:52 10° NNE
Cosmos 1656 Rocket 3.8 17:23:34 10° NNW 17:28:53 50° NE 17:33:23 15° SE
Cosmos 1898 Rocket 3.6 17:23:37 10° NNW 17:28:56 80° WSW 17:34:14 10° SSE
Resurs 1-3 3.9 17:25:21 10° SE 17:29:23 39° ENE 17:33:25 10° N
Cosmos 1980 Rocket 4.4 17:28:01 10° NNW 17:29:55 12° N 17:31:50 10° NNE
Cosmos 841 Rocket 3.8 17:27:09 10° S 17:32:08 46° ESE 17:35:00 24° NE
Cosmos 1703 3.9 17:34:08 10° SSE 17:36:27 30° SE 17:36:27 30° SE
Okean 1-7 2.9 17:35:42 10° S 17:39:56 67° E 17:43:22 15° NNE
SL-16 R/B 3.0 17:35:38 10° SSE 17:40:26 29° ESE 17:40:55 29° E
Cosmos 1980 3.6 17:35:05 10° SSW 17:40:44 85° ESE 17:44:57 19° NNE
Cosmos 1953 3.7 17:39:01 10° NNW 17:42:29 37° W 17:45:55 10° SSW
Cosmos 1300 Rocket 4.3 17:39:42 10° N 17:42:41 31° NE 17:42:41 31° NE
SKYMED 2 3.5 17:44:02 10° NNE 17:48:26 85° WNW 17:52:46 10° SSW
ADEOS 4.0 17:48:47 35° E 17:49:51 39° ENE 17:54:42 10° N
NOSS 0 Rocket 4.1 17:44:39 10° SW 17:50:46 71° NW 17:55:40 17° NNE
Cosmos 1818 3.5 17:46:35 10° NW 17:52:06 88° SW 17:56:19 17° SE
ATLAS 2AS CENTAUR R/B 2.6 17:46:53 10° NW 17:53:47 87° NE 17:59:05 17° SE
Resurs 01 Rocket 3.4 17:57:26 18° NNE 17:57:26 18° NNE 17:58:52 10° N
Cosmos 1092 Rocket 4.1 17:49:09 10° SSE 17:55:01 48° E 18:00:58 10° NNE
Cosmos 2369 Rocket 2.3 17:49:32 10° NNW 17:55:02 53° NE 17:56:55 37° ESE
ACS3 Solar Sail 2.0 17:50:25 10° S 17:56:49 79° WSW 18:03:16 10° NNW
COSMOS 2428 3.8 17:52:50 10° WSW 17:58:14 42° NW 18:02:53 14° NNE
Cosmos 2333 Rocket 4.3 17:56:39 10° WNW 18:00:30 18° NNW 18:04:23 10° NNE
Cosmos 1908 Rocket 3.7 18:02:27 10° NNW 18:06:49 73° W 18:11:06 10° S
BREEZE-M DEB (TANK) 3.0 17:59:45 10° W 18:06:55 65° S 18:07:22 58° SE
Cosmos 2322 Rocket 4.4 18:06:36 10° WNW 18:09:55 16° NNW 18:13:13 10° NNE
PAYLOAD B 4.5 18:12:31 46° ENE 18:12:31 46° ENE 18:17:39 10° N
Meteor 2-12 Rocket 4.3 18:06:16 10° S 18:12:20 76° E 18:18:28 10° NNE
EO 1 Delta rocket 4.2 18:07:37 10° N 18:12:23 63° WNW 18:16:57 10° SSW
Cosmos 2360 Rocket 4.4 18:09:10 10° WNW 18:12:45 17° NNW 18:16:20 10° NNE
CZ-4B DEB 4.2 18:12:00 48° ESE 18:13:04 56° ENE 18:18:26 10° N
Meteor 1-31 Rocket 4.0 18:09:50 10° SSW 18:13:11 37° W 18:16:33 10° NNW
CZ-4B R/B 4.4 18:18:58 32° NNE 18:18:58 32° NNE 18:21:52 10° N
Cosmos 1627 Rocket 4.4 18:11:42 10° S 18:18:02 71° E 18:24:24 10° NNE
Cosmos 2297 3.6 18:12:21 10° NNW 18:18:09 81° ENE 18:20:17 40° SE
Cosmos 2263 4.2 18:13:24 10° NNW 18:19:02 59° NE 18:19:34 57° ENE
CZ-2C R/B 3.4 18:22:18 45° W 18:22:18 45° W 18:25:16 10° NNW
Cosmos 2026 Rocket 3.9 18:17:21 10° S 18:23:43 78° E 18:30:06 10° NNE
Cosmos 1932 4.4 18:19:15 10° SSW 18:25:18 59° SE 18:25:50 57° ESE
BREEZE-M DEB (TANK) 3.3 18:17:07 10° WSW 18:28:23 60° S 18:28:56 56° SE
BlueWalker 3 3.2 18:31:14 10° WNW 18:33:53 36° WSW 18:33:53 36° WSW
Cosmos 2237 Rocket 3.0 18:29:34 10° SW 18:35:05 48° NW 18:37:58 26° N
COSMO-SKYMED 1 4.2 18:32:34 10° N 18:36:22 32° WNW 18:40:14 10° SW
ISS -1.4 18:37:35 10° WSW 18:39:01 23° WSW 18:39:01 23° WSW
Cosmos 1782 Rocket 4.3 18:38:19 10° NNW 18:41:42 48° NW 18:41:42 48° NW
Cosmos 2344 4.0 18:38:34 10° WSW 18:45:42 53° NNW 18:48:48 34° NNE
Cosmos 2219 Rocket 4.4 18:44:20 10° WNW 18:47:47 16° NNW 18:50:24 12° N
CZ-4C R/B 2.3 18:48:31 10° WSW 18:53:05 64° NW 18:53:05 64° NW
ATLAS 5 CENTAUR R/B 4.0 18:54:27 10° SW 18:54:38 11° SW 18:54:38 11° SW
CZ-4B R/B 4.3 19:00:45 32° N 19:00:45 32° N 19:03:34 10° NNW
Meteor 1-24 Rocket 3.9 18:52:50 10° SSW 18:58:09 73° SSW 18:58:09 73° SSW
USA 215 3.4 19:03:33 59° NNE 19:03:50 60° N 19:10:15 10° WNW
Meteor 2-5 Rocket 4.4 19:03:39 10° SSW 19:07:38 46° SSW 19:07:38 46° SSW
Cosmos 1553 Rocket 4.4 19:17:27 10° NNW 19:23:29 58° W 19:23:50 57° WSW
SL-16 R/B 3.0 19:18:35 10° SW 19:22:50 47° WSW 19:22:50 47° WSW
Resurs 01 Rocket 4.4 19:34:52 13° NNW 19:34:52 13° NNW 19:35:23 10° NNW
Cosmos 2369 Rocket 3.6 19:33:53 10° NW 19:38:45 33° WSW 19:38:45 33° WSW
ACS3 Solar Sail 4.4 19:37:24 10° WSW 19:41:24 17° W 19:45:27 10° NW
ATLAS 2AS CENTAUR R/B 4.3 19:38:31 10° WNW 19:43:56 26° WSW 19:46:35 21° SSW
